Temperature
11 11 11 12 12 13 13 13 13 13 13 14 14 14 14 14 14 14 14 14 14 14 14 14 14 15 15 15 15 15 15 15 15 15 15 15 15 15 15 15 15 15 15
11 11 11 12 12 12 13 13 13 13 13 13 13 13 13 14 14 14 14 14 14 14 14 14 14 14 14 14 14 14 14 14 14 14 15 15 15 15 15 15 15 15 15
11 11 11 12 12 12 12 12 12 13 13 13 13 13 13 13 13 13 13 14 14 14 14 14 14 14 14 14 14 14 14 14 14 14 14 14 14 14 14 15 15 15 15
11 11 11 11 11 12 12 12 12 12 12 12 12 12 12 13 13 13 13 13 13 13 14 14 14 14 14 14 14 14 14 14 14 14 14 14 14 14 14 14 14 14 14
11 11 11 11 11 11 11 12 12 12 12 12 12 12 12 12 12 12 13 13 13 13 13 13 13 13 13 13 13 13 14 14 14 14 14 14 14 14 14 14 14 14 14
11 11 11 11 11 11 11 11 11 11 11 11 11 11 12 12 12 12 12 12 13 13 13 13 13 13 13 13 13 13 13 13 13 13 13 13 13 14 14 14 14 14 14
10 10 10 10 11 11 11 11 11 11 11 11 11 11 11 11 12 12 12 12 12 12 12 12 13 13 13 13 13 13 13 13 13 13 13 13 13 13 13 13 14 14 14
10 10 10 10 10 10 10 10 11 11 11 11 11 11 11 11 11 11 12 12 12 12 12 12 12 12 12 12 12 13 13 13 13 13 13 13 13 13 13 13 13 13 14
10 10 10 10 10 10 10 10 10 10 10 11 11 11 11 11 11 11 11 11 11 11 11 11 12 12 12 12 12 12 12 12 12 12 12 12 12 12 13 13 13 13 13
9 9 9 9 9 10 10 10 10 10 10 10 10 10 10 10 11 11 11 11 11 11 11 11 11 11 11 12 12 12 12 12 12 12 12 12 12 12 12 12 12 13 13
9 9 9 9 9 9 9 9 9 9 9 10 10 10 10 10 10 10 10 10 10 10 11 11 11 11 11 11 11 11 11 11 11 12 12 12 12 12 12 12 12 12 12
8 8 8 8 8 8 9 9 9 9 9 9 9 9 9 9 9 9 10 10 10 10 10 10 10 10 10 10 11 11 11 11 11 11 11 11 11 11 11 11 12 12 12
8 8 8 8 8 8 8 8 8 8 8 9 9 9 9 9 9 9 9 9 9 9 9 10 10 10 10 10 10 10 10 10 10 11 11 11 11 11 11 11 11 11 11
7 7 7 7 7 7 8 8 8 8 8 8 8 8 8 8 8 8 8 8 8 8 9 9 9 9 9 9 10 10 10 10 10 10 10 10 10 10 10 10 10 11 11
7 7 7 7 7 7 7 7 7 7 7 7 7 7 7 7 7 7 7 7 7 7 8 8 8 8 9 9 9 9 9 9 9 9 9 9 9 10 9 10 10 10 10
6 6 6 6 6 6 6 6 7 7 6 6 6 6 6 6 6 6 6 7 7 7 7 7 7 7 8 8 8 8 8 9 9 9 9 9 9 9 9 9 9 9 10
6 6 6 6 6 6 6 6 6 6 6 6 6 6 6 6 6 6 6 6 6 6 6 6 6 6 7 7 7 7 7 8 8 8 8 8 8 8 8 9 8 9 9
5 5 5 5 5 5 5 5 5 5 5 5 5 5 5 5 5 5 5 5 5 5 5 5 5 6 6 6 6 6 7 7 7 7 7 7 7 7 8 8 8 8 8
5 5 5 5 4 4 4 4 4 4 4 4 4 4 4 4 4 4 4 4 4 4 4 4 4 4 5 5 5 6 6 6 6 6 6 6 6 6 7 7 7 7 7
4 4 4 4 4 4 4 4 4 4 4 4 4 4 4 4 4 4 3 3 3 3 3 3 3 4 3 4 4 5 5 5 5 5 5 5 5 5 6 6 6 6 6
4 3 3 3 3 3 3 3 3 3 3 3 3 3 3 3 3 3 3 3 3 3 2 2 2 3 3 3 3 4 4 4 4 4 4 4 5 5 5 5 5 5 6
3 3 3 3 3 3 3 3 3 3 2 2 2 2 2 2 2 2 2 2 2 2 2 2 2 2 2 1 1 1 2 3 3 3 4 4 4 4 4 4 5 5 5
3 2 2 2 2 2 2 2 2 2 2 2 2 2 2 1 1 1 1 1 1 1 1 1 1 1 1 1 0 -0 -0 0 1 2 2 3 3 3 3 3 4 4 4
2 2 2 2 1 1 1 1 1 1 1 1 1 1 1 1 1 1 1 1 1 0 0 0 0 -0 -0 0 -0 -0 -1 -1 -1 -0 1 1 2 2 2 2 3 3 3
2 2 1 1 1 1 1 1 0 0 0 0 0 0 0 0 -0 -0 -0 -0 -0 -0 -0 -0 -0 -1 -1 -1 -1 -1 -1 -1 -1 -1 -1 0 1 1 1 1 2 2 2
1 1 1 1 1 0 0 0 -0 -0 -0 -1 -1 -1 -1 -1 -1 -1 -1 -1 -1 -1 -1 -1 -1 -1 -1 -1 -1 -2 -2 -2 -2 -2 -2 -2 -1 -0 0 1 1 1 2
Wind_Speed
2 6 5 7 7 8 10 11 11 12 12 13 13 14 14 15 15 15 15 15 15 15 15 15 14 14 14 13 13 13 13 13 13 13 14 14 14 14 14 13 13 12 13
2 3 4 7 8 9 10 11 12 12 13 13 13 14 14 14 14 15 15 15 15 15 15 15 15 14 14 14 13 12 12 12 12 12 12 12 12 12 13 13 12 11 13
2 3 4 7 9 10 11 11 12 13 13 13 13 13 14 14 14 14 14 15 15 15 15 15 15 15 15 14 14 13 13 13 12 11 10 9 10 11 12 12 12 12 12
4 5 5 7 8 10 11 12 12 13 13 13 13 13 14 14 14 14 14 14 15 15 15 15 15 15 14 14 13 13 13 12 12 10 8 8 8 10 11 11 11 11 11
5 6 5 8 9 10 10 12 12 13 13 13 13 13 13 13 14 14 14 13 14 14 14 14 14 14 14 13 12 12 12 12 11 10 8 8 7 9 9 10 10 10 10
6 7 6 9 9 10 11 12 12 13 13 13 13 13 13 13 13 13 13 13 13 13 13 13 13 14 13 13 12 12 12 12 11 9 9 8 7 8 9 9 10 10 9
6 8 8 10 10 11 12 12 13 13 13 13 13 13 13 13 13 13 13 13 13 12 12 12 13 13 13 12 12 12 11 11 11 9 8 8 7 8 8 8 8 8 9
7 8 9 10 11 11 11 12 12 13 13 13 13 13 13 13 13 13 13 13 12 12 12 12 12 12 12 12 12 12 11 10 9 9 8 8 7 8 7 7 7 7 7
8 9 9 10 10 10 11 11 12 13 13 13 13 13 13 13 13 13 13 13 12 12 12 12 12 12 12 12 12 12 12 11 10 8 7 7 8 7 7 7 7 6 6
8 8 9 9 10 10 10 10 11 12 13 13 13 13 13 12 12 12 13 13 13 12 12 12 12 12 12 13 13 12 11 11 9 8 7 6 7 7 7 6 6 6 5
6 6 7 8 8 8 9 9 10 11 12 12 12 12 12 11 11 11 12 12 12 12 12 11 12 12 12 12 12 12 11 10 9 7 6 5 6 6 6 5 5 4 5
4 4 6 7 7 7 7 8 8 9 10 11 11 11 11 10 10 10 11 12 12 12 12 12 12 11 10 10 10 10 9 9 8 6 6 5 5 5 4 4 4 3 3
3 3 4 5 7 7 6 6 7 8 9 10 11 11 10 10 10 10 10 10 11 11 11 12 12 11 10 9 8 9 9 8 7 6 6 6 5 4 3 3 3 2 2
4 3 3 5 6 6 6 6 7 7 7 8 9 10 9 9 8 9 9 9 9 9 10 10 10 10 10 9 8 8 8 7 7 6 6 7 6 5 3 2 2 2 1
4 3 2 5 5 5 5 5 6 7 6 7 8 9 9 8 7 7 7 8 8 8 8 8 8 9 8 8 8 7 7 7 7 6 5 6 6 6 5 4 2 2 1
4 3 2 3 4 5 5 5 6 7 7 7 8 8 8 8 7 7 6 7 8 8 8 7 7 7 6 6 6 7 6 6 6 7 6 5 5 5 6 5 4 3 3
4 3 2 3 5 5 5 4 5 6 7 7 6 8 8 8 7 6 6 6 7 8 8 7 7 6 5 5 5 6 6 5 6 6 6 5 5 5 5 5 5 4 4
4 3 3 3 4 4 4 4 5 6 6 6 6 7 8 8 7 6 5 6 8 7 7 5 4 3 4 4 4 4 4 5 5 5 4 4 4 4 4 4 4 4 4
5 4 3 3 3 3 4 4 5 6 6 6 6 6 7 7 7 6 5 6 7 6 6 5 4 3 4 4 4 4 3 3 4 4 3 4 4 4 4 3 4 5 4
5 4 4 3 3 3 3 4 4 5 5 5 5 6 6 6 7 6 5 6 6 5 4 4 3 4 3 4 4 4 4 3 2 1 2 4 4 5 5 5 5 5 5
5 5 4 3 2 2 2 1 1 1 2 3 5 6 6 6 6 6 5 5 5 3 3 3 2 3 3 4 3 4 4 3 2 1 2 3 4 6 6 6 6 6 6
6 5 4 3 2 2 1 1 1 1 1 2 4 6 6 6 6 5 5 4 4 2 3 4 3 2 2 3 2 2 3 3 3 3 2 2 3 5 6 7 7 7 7
6 5 5 4 3 2 2 2 2 2 2 2 3 4 6 6 6 6 5 5 4 2 2 3 2 2 2 2 2 1 1 2 4 3 2 2 3 4 5 7 7 8 8
6 5 4 4 3 2 3 3 2 2 0 1 1 2 5 6 6 6 5 5 4 4 2 3 3 2 2 2 2 2 2 2 2 3 3 3 4 4 5 6 7 8 9
5 5 4 4 3 3 3 3 3 1 0 0 1 2 3 5 6 6 6 5 5 4 3 3 3 2 2 2 2 2 2 2 3 4 5 5 4 3 3 4 6 7 8
4 4 4 4 3 3 3 2 2 1 0 1 1 2 3 3 4 5 6 5 5 4 4 4 2 2 2 2 3 2 2 2 3 3 5 6 7 5 4 3 4 5 7
Wind_Direction
307 328 0 31 50 57 59 61 61 59 58 58 58 57 56 55 55 55 56 55 54 54 53 52 54 57 57 60 62 63 66 67 70 69 68 69 73 76 77 77 78 79 83
278 337 15 43 56 62 63 63 63 62 61 59 59 59 58 55 54 55 55 53 53 52 51 51 52 54 55 57 60 63 65 66 64 65 66 68 72 74 77 78 79 84 85
35 31 42 54 63 65 65 66 67 66 64 62 60 60 59 57 55 54 54 53 52 51 50 49 49 51 52 53 55 60 63 63 61 61 62 63 73 80 80 80 81 83 84
63 50 55 68 72 72 69 68 67 66 64 63 62 61 60 59 57 56 54 53 52 51 49 47 47 48 48 50 52 56 58 59 59 59 56 57 67 80 84 84 83 82 83
60 53 60 80 78 75 74 71 68 66 64 63 62 61 61 60 58 56 55 53 52 51 48 46 45 44 44 46 49 52 54 54 52 53 52 52 58 75 83 85 84 84 84
61 56 63 81 78 74 73 71 69 66 65 63 61 61 61 60 59 56 54 52 52 50 48 46 44 41 41 43 48 51 50 51 51 51 47 49 56 73 80 84 85 86 86
65 58 63 71 75 72 71 70 68 66 64 64 62 59 57 57 56 54 51 49 49 48 45 43 41 39 41 43 46 48 49 50 52 48 42 41 53 70 77 84 85 84 85
71 61 59 65 66 68 70 69 67 65 63 63 61 58 55 54 53 51 48 45 45 44 44 41 40 38 38 40 43 44 44 47 51 48 41 40 49 60 72 78 82 83 83
72 63 55 54 59 60 64 68 68 66 63 62 60 57 55 52 51 49 44 42 41 41 40 39 38 38 36 37 41 41 41 42 46 43 43 43 47 52 61 66 71 76 81
67 62 56 53 54 54 58 66 69 67 64 62 59 56 53 49 48 46 42 41 38 37 38 36 36 34 34 34 35 36 35 36 36 39 38 43 45 48 52 58 59 64 74
64 54 55 53 52 54 59 61 63 65 64 60 56 54 50 45 43 41 39 41 37 33 34 33 32 30 30 29 30 31 32 31 28 31 30 32 40 38 40 47 50 53 61
74 58 50 54 50 53 59 58 59 62 62 58 56 53 50 46 42 40 37 39 35 30 27 26 26 27 26 22 22 26 27 24 24 24 21 19 24 27 29 36 38 44 51
103 75 50 54 54 57 58 62 61 61 61 58 55 53 53 48 42 38 34 33 31 26 22 16 20 21 20 17 17 20 20 22 19 15 10 7 3 3 10 18 20 28 48
105 82 55 61 61 57 64 67 64 61 60 58 53 51 53 48 38 33 32 26 26 23 18 14 13 13 13 12 14 14 15 13 6 4 1 360 356 346 343 341 344 350 9
116 94 67 66 67 64 63 65 64 60 60 63 59 53 53 49 36 29 26 24 19 17 15 8 8 6 7 7 7 7 5 2 357 352 351 353 351 347 337 325 311 314 315
132 125 89 75 72 72 65 62 64 63 59 58 57 52 51 51 43 30 21 17 13 11 9 6 2 3 359 1 358 356 351 354 353 348 341 342 345 344 336 318 305 304 304
143 134 111 96 77 71 67 63 70 67 64 57 55 53 51 50 45 36 22 13 5 7 9 7 6 7 360 356 349 347 345 342 336 340 338 336 338 339 335 326 311 301 298
136 130 120 101 84 73 68 63 69 66 62 54 51 53 47 45 42 38 27 11 4 9 10 2 1 352 346 339 333 328 333 333 325 327 334 340 342 340 334 329 332 321 312
148 141 129 102 95 79 73 69 67 63 55 49 49 50 43 40 37 36 27 11 8 9 7 0 355 347 340 337 328 321 325 321 317 327 339 343 344 350 352 344 338 332 322
147 140 132 111 92 77 71 60 55 52 43 40 46 41 40 34 32 31 26 14 14 10 3 358 345 349 336 330 330 326 310 300 306 320 335 354 2 2 5 360 356 345 328
140 140 139 124 108 96 78 66 67 40 22 22 31 30 32 29 25 25 16 11 12 12 350 352 343 345 347 346 346 337 326 309 300 332 4 10 7 358 358 5 1 355 337
156 156 150 146 131 118 111 90 80 60 27 29 21 20 20 23 19 15 14 5 4 5 359 355 351 344 346 2 356 339 331 336 345 338 336 350 355 0 360 354 352 348 338
162 169 167 160 143 130 104 76 59 47 25 20 12 6 4 8 11 10 8 7 0 4 347 340 342 350 333 340 6 346 317 298 318 303 311 342 347 348 348 339 336 336 335
177 170 163 157 147 137 113 111 109 99 57 315 332 341 353 2 5 4 1 1 357 357 345 333 353 328 321 320 328 319 286 277 285 304 307 325 327 324 325 325 324 327 327
170 166 161 154 151 145 127 134 134 127 172 332 357 356 352 351 355 357 357 358 355 351 341 334 334 323 310 293 299 300 302 302 270 267 290 307 310 298 296 307 312 315 316
158 154 149 154 162 152 137 138 142 150 135 23 357 346 340 334 345 350 352 353 346 339 330 322 318 312 302 295 294 285 284 281 281 276 279 291 296 295 292 288 301 304 308
Height
1545 1546 1546 1546 1546 1545 1545 1544 1544 1543 1542 1542 1541 1541 1540 1540 1539 1539 1538 1538 1538 1538 1537 1537 1536 1536 1536 1535 1535 1535 1535 1535 1535 1535 1535 1535 1535 1535 1535 1535 1535 1535 1535
1544 1545 1545 1545 1545 1545 1544 1544 1543 1543 1542 1542 1541 1541 1541 1540 1540 1539 1539 1538 1538 1538 1538 1537 1537 1537 1536 1536 1536 1536 1536 1536 1536 1536 1536 1536 1536 1536 1536 1536 1537 1537 1537
1544 1544 1545 1545 1545 1545 1544 1544 1543 1543 1542 1542 1541 1541 1540 1540 1540 1539 1539 1539 1538 1538 1538 1538 1537 1537 1537 1537 1536 1536 1536 1536 1537 1537 1537 1537 1537 1537 1537 1537 1538 1538 1538
1543 1544 1544 1544 1544 1544 1544 1543 1543 1542 1542 1542 1541 1541 1540 1540 1539 1539 1539 1539 1539 1538 1538 1538 1538 1537 1537 1537 1537 1537 1537 1537 1537 1537 1537 1538 1538 1538 1538 1538 1539 1539 1539
1543 1543 1543 1544 1544 1544 1543 1543 1543 1542 1542 1541 1541 1541 1540 1540 1539 1539 1539 1539 1538 1538 1538 1538 1538 1537 1537 1537 1537 1537 1537 1537 1538 1538 1538 1538 1538 1539 1539 1539 1539 1539 1539
1542 1542 1542 1543 1543 1543 1543 1543 1542 1542 1542 1541 1541 1540 1540 1540 1539 1539 1539 1538 1538 1538 1538 1537 1537 1537 1537 1537 1537 1537 1537 1537 1537 1538 1538 1538 1538 1539 1539 1539 1539 1540 1540
1541 1542 1542 1542 1542 1542 1542 1542 1542 1542 1541 1541 1541 1540 1540 1539 1539 1539 1538 1538 1538 1538 1537 1537 1537 1537 1537 1537 1537 1537 1537 1537 1537 1537 1538 1538 1538 1539 1539 1539 1539 1540 1540
1541 1541 1541 1541 1542 1542 1542 1541 1541 1541 1541 1540 1540 1540 1539 1539 1539 1539 1538 1538 1537 1537 1537 1536 1536 1536 1536 1536 1536 1536 1537 1537 1537 1537 1537 1538 1538 1538 1538 1539 1539 1539 1540
1540 1540 1540 1541 1541 1541 1541 1541 1541 1541 1540 1540 1539 1539 1539 1539 1538 1538 1537 1537 1537 1536 1536 1536 1536 1536 1535 1536 1536 1536 1536 1536 1536 1536 1537 1537 1537 1537 1538 1538 1538 1538 1539
1539 1539 1540 1540 1540 1540 1540 1540 1540 1540 1540 1539 1539 1539 1538 1538 1537 1537 1537 1536 1535 1535 1535 1535 1535 1535 1535 1535 1535 1535 1535 1535 1535 1535 1536 1536 1536 1537 1537 1537 1537 1537 1538
1538 1538 1539 1539 1539 1539 1539 1539 1539 1539 1539 1538 1538 1538 1537 1537 1536 1536 1535 1535 1535 1534 1534 1534 1533 1533 1533 1534 1534 1534 1534 1534 1534 1534 1535 1535 1535 1535 1536 1536 1536 1536 1536
1536 1537 1537 1538 1538 1538 1538 1538 1538 1538 1538 1537 1537 1537 1536 1536 1535 1535 1534 1534 1534 1533 1533 1532 1532 1532 1532 1532 1532 1532 1532 1532 1533 1533 1533 1533 1534 1534 1534 1534 1534 1535 1535
1535 1536 1536 1537 1537 1537 1537 1537 1537 1537 1537 1536 1536 1535 1535 1534 1534 1533 1533 1532 1532 1532 1531 1531 1531 1531 1530 1530 1530 1530 1531 1531 1531 1531 1531 1532 1532 1532 1532 1532 1532 1533 1533
1534 1535 1535 1536 1536 1536 1536 1536 1536 1535 1535 1535 1534 1534 1533 1533 1532 1532 1531 1531 1530 1530 1530 1529 1529 1529 1529 1529 1528 1528 1528 1528 1529 1529 1529 1530 1530 1530 1530 1530 1530 1531 1531
1532 1533 1534 1534 1534 1535 1535 1534 1534 1534 1534 1533 1533 1532 1532 1531 1531 1530 1530 1529 1529 1528 1527 1527 1527 1526 1526 1526 1526 1526 1526 1526 1526 1526 1527 1527 1527 1527 1527 1528 1528 1528 1529
1531 1531 1532 1532 1533 1533 1533 1533 1532 1532 1532 1531 1531 1530 1530 1530 1529 1529 1528 1527 1526 1526 1525 1525 1524 1524 1523 1523 1523 1523 1523 1523 1523 1523 1524 1524 1524 1524 1524 1525 1525 1526 1526
1529 1530 1530 1531 1531 1531 1531 1531 1531 1531 1530 1529 1529 1529 1528 1528 1527 1527 1526 1525 1524 1524 1523 1523 1522 1521 1521 1520 1520 1520 1520 1520 1520 1520 1521 1521 1521 1521 1522 1522 1522 1523 1523
1527 1528 1528 1529 1529 1529 1529 1530 1529 1529 1528 1528 1527 1527 1527 1526 1526 1525 1524 1523 1522 1521 1521 1520 1519 1518 1517 1517 1516 1516 1516 1517 1517 1517 1517 1517 1518 1518 1518 1519 1519 1519 1520
1524 1525 1526 1527 1527 1528 1528 1528 1528 1527 1526 1526 1525 1525 1525 1524 1524 1523 1522 1521 1520 1520 1518 1518 1517 1516 1514 1513 1513 1513 1513 1513 1513 1513 1514 1514 1514 1515 1515 1515 1515 1516 1516
1522 1523 1524 1525 1525 1526 1526 1526 1526 1525 1525 1524 1524 1523 1523 1522 1521 1521 1520 1519 1518 1518 1517 1516 1515 1514 1512 1511 1510 1509 1509 1509 1510 1510 1510 1511 1511 1511 1511 1512 1512 1512 1513
1519 1520 1521 1522 1523 1523 1523 1523 1523 1523 1523 1522 1522 1521 1521 1520 1519 1519 1518 1517 1516 1515 1514 1513 1512 1511 1510 1508 1507 1505 1505 1506 1506 1506 1507 1507 1507 1507 1508 1508 1508 1508 1508
1516 1517 1518 1519 1520 1520 1520 1521 1521 1521 1520 1520 1520 1519 1519 1518 1517 1516 1515 1514 1514 1513 1512 1511 1510 1509 1508 1507 1506 1504 1503 1502 1502 1502 1503 1503 1503 1503 1503 1503 1503 1503 1504
1513 1514 1516 1517 1517 1518 1518 1518 1518 1518 1518 1518 1517 1517 1516 1515 1515 1514 1513 1512 1511 1510 1509 1508 1508 1506 1505 1505 1505 1505 1504 1501 1499 1498 1498 1498 1498 1498 1499 1499 1499 1499 1499
1511 1512 1513 1514 1515 1515 1515 1515 1515 1515 1515 1514 1514 1514 1513 1513 1512 1511 1510 1509 1508 1507 1506 1506 1505 1504 1503 1502 1502 1502 1503 1501 1500 1495 1494 1494 1494 1494 1494 1494 1494 1494 1494
1508 1510 1511 1512 1513 1513 1512 1513 1513 1513 1513 1512 1512 1511 1511 1510 1509 1508 1507 1506 1505 1504 1503 1503 1502 1501 1500 1499 1499 1498 1498 1498 1497 1495 1491 1489 1489 1490 1490 1490 1489 1489 1490
1506 1507 1508 1509 1510 1510 1509 1510 1510 1510 1510 1509 1509 1508 1507 1507 1506 1505 1504 1503 1502 1501 1500 1499 1498 1498 1497 1496 1495 1495 1494 1494 1493 1492 1489 1486 1485 1484 1485 1485 1485 1485 1485